This demonstration page uses our WeatherBlox Daily Observations layout. Learn more.

Left ArrowRight Arrow

Hourly Observations for June 4, 2018

Temp ( °F °C ) Dew Point ( °F °C ) Humidity (%) Winds ( mph kmh ) Pressure ( in mb ) Visibility ( mi km ) Precip ( " mm )
12:54 am 00:54 Clear 59 15 54 12.2 83 83 N 6 9 30.08 1019 10 16 0.00 0.00
1:54 am 01:54 Clear 58 14.4 54 12.2 87 87 Calm 30.07 1018 10 16 0.00 0.00
2:54 am 02:54 Clear 57 13.9 53 11.7 87 87 Calm 30.08 1019 10 16 0.00 0.00
3:54 am 03:54 Clear 57 13.9 53 11.7 87 87 Calm 30.09 1019 10 16 0.00 0.00
4:54 am 04:54 Clear 60 15.6 53 11.7 78 78 Calm 30.09 1019 10 16 0.00 0.00
5:54 am 05:54 Clear 61 16.1 53 11.7 75 75 S 3 6 30.11 1020 10 16 0.00 0.00
6:54 am 06:54 Sunny 61 16.1 54 12.2 78 78 SSE 6 9 30.10 1019 10 16 0.00 0.00
7:54 am 07:54 Sunny 67 19.4 55 12.8 66 66 S 7 11 30.08 1019 10 16 0.00 0.00
8:54 am 08:54 Sunny 70 21.1 52 11.1 53 53 S 13 20 30.07 1018 10 16 0.00 0.00
9:54 am 09:54 Sunny 70 21.1 50 10 49 49 SSE 13 20 30.06 1018 10 16 0.00 0.00
10:54 am 10:54 Mostly Cloudy 70 21.1 53 11.7 55 55 S 14 22 30.05 1018 10 16 0.00 0.00
11:54 am 11:54 Mostly Cloudy 71 21.7 55 12.8 57 57 SSE 12 19 30.04 1017 10 16 0.00 0.00
12:54 pm 12:54 Partly Cloudy 73 22.8 56 13.3 55 55 S 17 28 30.05 1018 10 16 0.00 0.03
1:54 pm 13:54 Mostly Cloudy 72 22.2 59 15 64 64 S 13 20 30.02 1017 10 16 0.00 0.03
2:54 pm 14:54 Mostly Cloudy 77 25 61 16.1 58 58 S 14 22 29.98 1015 10 16 0.00 0.00
3:54 pm 15:54 Sunny 75 23.9 60 15.6 60 60 S 12 19 29.96 1015 10 16 0.00 0.00
4:54 pm 16:54 Sunny 78 25.6 58 14.4 50 50 S 13 20 29.94 1014 10 16 0.00 0.00
5:54 pm 17:54 Sunny 78 25.6 56 13.3 47 47 S 14 22 29.92 1013 10 16 0.00 0.00
6:54 pm 18:54 Sunny 78 25.6 54 12.2 43 43 S 13 20 29.90 1013 10 16 0.00 0.00
7:54 pm 19:54 Sunny 75 23.9 58 14.4 55 55 S 13 20 29.89 1012 10 16 0.00 0.00
8:54 pm 20:54 Sunny 70 21.1 59 15 68 68 S 6 9 29.90 1013 10 16 0.00 0.00
9:54 pm 21:54 Clear 68 20 59 15 73 73 SSE 8 13 29.90 1013 10 16 0.00 0.00
10:54 pm 22:54 Clear 68 20 59 15 73 73 S 9 15 29.90 1013 10 16 0.00 0.00
11:54 pm 23:54 Clear 67 19.4 59 15 76 76 S 10 17 29.89 1012 10 16 0.00 0.00

Powered by AerisWeather